User: anonymous   Login
Location: Unspecified
(0.0000°N, 0.0000°E)
Time: 22:19:33
(UTC+00:00)
Language:

STARLINK-4553 - Orbit

View from above orbital plane
View from above orbital plane
View from above satellite
View from above satellite

Ground track
Ground track

The orbit is defined by the following mean orbital elements,

1 53577U          26145.49471955 +.00000000 +00000-0 +11747-3 0 00005
2 53577  53.2124  69.0770 0001464  87.0499 273.0660 15.08835868    03
Epoch (UTC): 25 May 2026 11:52:23
Eccentricity: 0.0001464
inclination: 53.2124°
perigee height: 539 km
apogee height: 541 km
right ascension of ascending node: 69.0770°
argument of perigee: 87.0499°
revolutions per day: 15.08835868
mean anomaly at epoch: 273.0660°

The dashed part of the orbit path shows where the satellite is in the earth's shadow,  

DLR